Date String (YYYY-MM-DD hh:mm:ss) UTC,Instrument flags,Ambient pressure (hPa),Sample flow (lpm),Bypass flow (lpm),Sample temperature (°C),Ambient temperature (°C),ASC tube jacket temperature (°C),LED temperature (°C),Box temperature (°C),Sample RH (%),Span deviation,Mass concentration (μg/m³),Mass concentration (μg/m³),Mass concentration (μg/m³)
DateTimeUTC,F1_M11,P_M11,Q1_M11,Q2_M11,T1_M11,T2_M11,T3_M11,T4_M11,T5_M11,U1_M11,ZSPAN_M11,X0_M11,X2_M11,X1_M11
2022-02-22 00:00:00,,0817.5,5.00,0.00,22.1,21.4,00.0,31.3,23.6,08.2,0001.7,0014.25,0006.20,0005.15
2022-02-22 00:01:00,,0817.5,5.00,0.00,22.1,21.8,00.0,31.3,23.8,08.1,0001.6,0013.66,0006.23,0005.16
2022-02-22 00:02:00,,0817.6,4.98,0.00,22.3,22.5,00.0,31.3,24.1,08.1,0001.1,0013.87,0006.25,0005.17
2022-02-22 00:03:00,,0817.7,5.00,0.00,22.4,23.2,00.0,31.4,24.4,08.1,0001.0,0013.95,0006.23,0005.17
2022-02-22 00:04:00,,0817.7,5.02,0.00,22.6,23.3,00.0,31.4,24.5,08.0,0000.5,0014.20,0006.23,0005.16
2022-02-22 00:05:00,,0817.7,5.00,0.00,22.6,23.0,00.0,31.4,24.4,08.0,0000.4,0014.11,0006.19,0005.15
2022-02-22 00:06:00,,0817.7,4.99,0.00,22.5,22.6,00.0,31.4,24.3,08.0,0000.4,0014.29,0006.16,0005.14
2022-02-22 00:07:00,,0817.8,4.99,0.00,22.5,22.4,00.0,31.4,24.1,08.0,0000.0,0014.17,0006.15,0005.13
2022-02-22 00:08:00,,0817.8,5.00,0.00,22.4,22.1,00.0,31.4,24.1,08.0,0000.6,0014.00,0006.13,0005.11
2022-02-22 00:09:00,,0817.8,5.00,0.00,22.4,21.9,00.0,31.4,24.0,08.0,0000.3,0014.38,0006.09,0005.12
2022-02-22 00:10:00,,0817.7,5.00,0.00,22.3,21.8,00.0,31.4,23.9,08.0,0000.1,0015.72,0006.14,0005.14
2022-02-22 00:11:00,,0817.8,4.99,0.00,22.2,21.6,00.0,31.4,23.8,08.0,0000.6,0014.70,0006.14,0005.15
2022-02-22 00:12:00,,0817.7,5.01,0.00,22.2,21.4,00.0,31.4,23.7,08.0,0000.7,0015.20,0006.11,0005.14
2022-02-22 00:13:00,,0817.8,5.00,0.00,22.1,21.4,00.0,31.4,23.6,08.0,0000.6,0015.01,0006.08,0005.15
2022-02-22 00:14:00,,0817.8,5.00,0.00,22.2,22.0,00.0,31.4,23.9,07.9,0000.4,0015.21,0006.05,0005.14
2022-02-22 00:15:00,,0817.8,4.99,0.00,22.3,22.7,00.0,31.4,24.1,07.8,0000.1,0014.65,0006.07,0005.13
2022-02-22 00:16:00,,0817.8,5.00,0.00,22.5,23.0,00.0,31.4,24.4,07.7,0000.3,0014.53,0006.08,0005.12
2022-02-22 00:17:00,,0817.7,5.02,0.00,22.5,22.8,00.0,31.4,24.3,07.7,0000.5,0015.37,0006.09,0005.12
2022-02-22 00:18:00,,0817.7,5.00,0.00,22.4,22.5,00.0,31.4,24.2,07.7,0001.1,0015.72,0006.10,0005.13
2022-02-22 00:19:00,,0817.8,5.00,0.00,22.4,22.2,00.0,31.4,24.1,07.8,0000.7,0015.59,0006.07,0005.13
2022-02-22 00:20:00,,0817.8,4.99,0.00,22.3,22.0,00.0,31.4,24.0,07.8,0001.1,0014.57,0006.08,0005.13
2022-02-22 00:21:00,,0817.8,5.00,0.00,22.3,21.9,00.0,31.4,23.9,07.9,0000.8,0013.34,0006.06,0005.13
2022-02-22 00:22:00,,0817.8,4.99,0.00,22.2,21.7,00.0,31.4,23.8,07.9,0000.2,0013.16,0006.05,0005.12
2022-02-22 00:23:00,,0817.8,5.02,0.00,22.2,21.5,00.0,31.3,23.8,07.9,0000.1,0012.56,0006.08,0005.12
2022-02-22 00:24:00,,0817.8,5.00,0.00,22.1,21.4,00.0,31.3,23.7,07.9,0000.7,0012.55,0006.05,0005.09
2022-02-22 00:25:00,,0817.7,4.99,0.00,22.1,21.3,00.0,31.3,23.6,07.9,0000.9,0012.19,0006.05,0005.08
2022-02-22 00:26:00,,0817.7,5.00,0.00,22.1,21.7,00.0,31.3,23.7,07.9,0001.6,0011.97,0006.02,0005.08
2022-02-22 00:27:00,,0817.7,5.01,0.00,22.2,22.4,00.0,31.3,24.0,07.9,0001.5,0012.14,0005.99,0005.08
2022-02-22 00:28:00,,0817.8,5.00,0.00,22.4,23.1,00.0,31.4,24.3,07.9,0001.3,0011.31,0005.95,0005.07
2022-02-22 00:29:00,,0817.8,4.99,0.00,22.5,23.2,00.0,31.4,24.4,07.8,0001.1,0010.62,0005.90,0005.05
2022-02-22 00:30:00,,0817.8,5.00,0.00,22.5,22.9,00.0,31.4,24.3,07.8,0001.3,0010.75,0005.94,0005.04
2022-02-22 00:31:00,,0817.9,5.01,0.00,22.4,22.6,00.0,31.4,24.2,07.8,0001.3,0011.15,0005.94,0005.03
2022-02-22 00:32:00,,0817.8,5.00,0.00,22.4,22.2,00.0,31.4,24.1,07.8,0001.4,0012.07,0005.95,0005.03
2022-02-22 00:33:00,,0817.9,4.99,0.00,22.3,22.0,00.0,31.4,23.9,07.8,0002.1,0012.42,0006.00,0005.03
2022-02-22 00:34:00,,0818.0,5.02,0.00,22.2,21.7,00.0,31.4,23.8,07.7,0001.9,0012.51,0006.02,0005.02
2022-02-22 00:35:00,,0818.0,5.00,0.00,22.2,21.6,00.0,31.3,23.8,07.7,0001.5,0012.49,0005.98,0005.02
2022-02-22 00:36:00,,0818.0,5.00,0.00,22.1,21.4,00.0,31.3,23.7,07.7,0001.3,0012.54,0006.00,0005.03
2022-02-22 00:37:00,,0817.9,5.00,0.00,22.1,21.3,00.0,31.3,23.6,07.7,0001.0,0012.57,0005.98,0005.02
2022-02-22 00:38:00,,0817.9,5.00,0.00,22.1,21.6,00.0,31.3,23.6,07.7,0001.3,0013.24,0005.97,0005.01
2022-02-22 00:39:00,,0817.9,5.00,0.00,22.2,22.3,00.0,31.3,24.0,07.7,0001.2,0013.44,0006.00,0005.02
2022-02-22 00:40:00,,0817.9,5.00,0.00,22.3,23.0,00.0,31.4,24.2,07.7,0000.8,0013.53,0006.01,0005.01
2022-02-22 00:41:00,,0818.0,5.01,0.00,22.4,22.9,00.0,31.4,24.3,07.6,0000.7,0013.66,0006.03,0005.00
2022-02-22 00:42:00,,0818.0,4.98,0.00,22.4,22.7,00.0,31.4,24.2,07.6,0000.1,0013.84,0006.05,0005.01
2022-02-22 00:43:00,,0818.0,5.01,0.00,22.4,22.4,00.0,31.4,24.1,07.7,0000.2,0014.46,0006.04,0004.99
2022-02-22 00:44:00,,0818.0,5.00,0.00,22.3,22.1,00.0,31.4,24.0,07.7,-000.1,0014.45,0006.02,0004.98
2022-02-22 00:45:00,,0818.0,5.00,0.00,22.3,21.9,00.0,31.3,23.9,07.7,-000.1,0014.16,0005.94,0004.96
2022-02-22 00:46:00,,0818.0,5.01,0.00,22.2,21.7,00.0,31.3,23.8,07.8,-000.2,0014.34,0005.96,0004.95
2022-02-22 00:47:00,,0818.0,5.00,0.00,22.1,21.5,00.0,31.3,23.7,07.8,-000.0,0014.84,0005.96,0004.94
2022-02-22 00:48:00,,0818.0,5.00,0.00,22.1,21.3,00.0,31.3,23.6,07.9,0000.0,0015.40,0005.94,0004.93
2022-02-22 00:49:00,,0818.0,5.00,0.00,22.0,21.5,00.0,31.3,23.6,07.9,-000.0,0014.70,0005.90,0004.92
2022-02-22 00:50:00,,0818.0,5.00,0.00,22.2,22.2,00.0,31.3,23.9,08.0,-000.2,0013.89,0005.88,0004.90
2022-02-22 00:51:00,,0818.1,5.00,0.00,22.3,22.9,00.0,31.3,24.2,08.0,-000.4,0013.91,0005.88,0004.89
2022-02-22 00:52:00,,0818.0,5.01,0.00,22.4,23.1,00.0,31.4,24.3,07.9,-000.2,0014.04,0005.80,0004.88
2022-02-22 00:53:00,,0818.1,4.99,0.00,22.4,22.8,00.0,31.4,24.3,07.9,-000.2,0013.68,0005.72,0004.86
2022-02-22 00:54:00,,0818.1,5.00,0.00,22.4,22.5,00.0,31.4,24.2,08.0,-000.2,0012.31,0005.68,0004.84
2022-02-22 00:55:00,,0818.2,5.00,0.00,22.4,22.2,00.0,31.4,24.0,08.0,0000.1,0011.57,0005.68,0004.83
2022-02-22 00:56:00,,0818.3,5.00,0.00,22.3,22.0,00.0,31.4,24.0,08.1,0000.2,0011.71,0005.70,0004.83
2022-02-22 00:57:00,,0818.3,5.01,0.00,22.3,21.8,00.0,31.3,23.9,08.1,0000.2,0011.58,0005.68,0004.83
2022-02-22 00:58:00,,0818.2,5.00,0.00,22.2,21.6,00.0,31.3,23.8,08.1,-000.1,0011.27,0005.66,0004.82
2022-02-22 00:59:00,,0818.1,5.01,0.00,22.1,21.5,00.0,31.3,23.7,08.1,-000.1,0010.81,0005.70,0004.83
